Time,TemperatureF,DewpointF,PressureIn,WindDirection,WindDirectionDegrees,WindSpeedMPH,WindSpeedGustMPH,Humidity,HourlyPrecipIn,Conditions,Clouds,dailyrainin,SolarRadiationWatts/m^2,SoftwareType,DateUTC
2013-04-21 00:00:00,66.0,56.3,30.00,SE,144,5.2,12.2,71,0.00,,---,0.00,0.00,VWS V14.01,2013-04-21 05:00:00,
2013-04-21 00:01:00,66.0,56.3,30.00,SE,134,8.2,8.2,71,0.00,,---,0.00,,VWS V14.01,2013-04-21 05:01:00,
2013-04-21 00:05:00,65.8,56.2,30.00,SE,138,6.2,14.2,71,0.00,,---,0.00,0.00,VWS V14.01,2013-04-21 05:05:00,
2013-04-21 00:06:00,65.8,56.2,30.00,SSE,147,10.2,13.2,71,0.00,,---,0.00,,VWS V14.01,2013-04-21 05:06:00,
2013-04-21 00:10:00,65.8,56.5,30.00,SE,145,6.2,14.2,72,0.00,,---,0.00,0.00,VWS V14.01,2013-04-21 05:10:00,
2013-04-21 00:11:00,65.8,56.5,30.00,SE,142,8.2,8.2,72,0.00,,---,0.00,,VWS V14.01,2013-04-21 05:11:00,
2013-04-21 00:15:00,65.8,56.5,30.00,SE,146,11.2,15.2,72,0.00,,---,0.00,0.00,VWS V14.01,2013-04-21 05:15:00,
2013-04-21 00:16:00,65.8,56.5,30.00,SE,137,12.2,12.2,72,0.00,,---,0.00,,VWS V14.01,2013-04-21 05:16:00,
2013-04-21 00:20:00,66.0,56.7,30.00,SE,128,6.2,16.2,72,0.00,,---,0.00,0.00,VWS V14.01,2013-04-21 05:20:00,
2013-04-21 00:21:00,66.0,56.7,30.00,SE,135,5.2,8.2,72,0.00,,---,0.00,,VWS V14.01,2013-04-21 05:21:00,
2013-04-21 00:25:00,66.0,57.1,30.00,SE,143,6.2,13.2,73,0.00,,---,0.00,0.00,VWS V14.01,2013-04-21 05:25:00,
2013-04-21 00:26:00,66.0,57.1,30.00,SE,143,5.2,6.2,73,0.00,,---,0.00,,VWS V14.01,2013-04-21 05:26:00,
2013-04-21 00:30:00,66.0,56.7,30.00,SE,138,5.2,12.2,72,0.00,,---,0.00,0.00,VWS V14.01,2013-04-21 05:30:00,
2013-04-21 00:31:00,66.0,56.7,30.00,SE,138,3.2,5.2,72,0.00,,---,0.00,,VWS V14.01,2013-04-21 05:31:00,
2013-04-21 00:35:00,66.0,57.1,30.00,ESE,122,7.2,13.2,73,0.00,,---,0.00,0.00,VWS V14.01,2013-04-21 05:35:00,
2013-04-21 00:36:00,66.0,57.1,30.00,ESE,120,7.2,9.2,73,0.00,,---,0.00,,VWS V14.01,2013-04-21 05:36:00,
2013-04-21 00:40:00,66.0,56.7,30.00,SE,129,5.2,11.2,72,0.00,,---,0.00,0.00,VWS V14.01,2013-04-21 05:40:00,
2013-04-21 00:41:00,66.0,56.7,30.00,SE,142,5.2,6.2,72,0.00,,---,0.00,,VWS V14.01,2013-04-21 05:41:00,
2013-04-21 00:45:00,66.0,57.1,30.01,ESE,116,7.2,12.2,73,0.00,,---,0.00,0.00,VWS V14.01,2013-04-21 05:45:00,
2013-04-21 00:46:00,66.0,57.1,30.01,ESE,123,6.2,7.2,73,0.00,,---,0.00,,VWS V14.01,2013-04-21 05:46:00,
2013-04-21 00:50:00,66.0,57.1,30.01,SE,129,5.2,14.2,73,0.00,,---,0.00,0.00,VWS V14.01,2013-04-21 05:50:00,
2013-04-21 00:51:00,66.0,57.1,30.01,SE,130,7.2,7.2,73,0.00,,---,0.00,,VWS V14.01,2013-04-21 05:51:00,
2013-04-21 00:55:00,66.0,57.1,30.01,ESE,122,7.2,12.2,73,0.00,,---,0.00,0.00,VWS V14.01,2013-04-21 05:55:00,
2013-04-21 00:56:00,66.0,57.1,30.01,SE,146,6.2,7.2,73,0.00,,---,0.00,,VWS V14.01,2013-04-21 05:56:00,
2013-04-21 01:00:00,66.1,57.2,30.00,SE,126,6.2,11.2,73,0.00,,---,0.00,0.00,VWS V14.01,2013-04-21 06:00:00,
2013-04-21 01:01:00,66.1,57.2,30.00,SE,126,5.2,6.2,73,0.00,,---,0.00,,VWS V14.01,2013-04-21 06:01:00,
2013-04-21 01:05:00,66.1,57.6,30.00,SE,134,5.2,15.2,74,0.00,,---,0.00,0.00,VWS V14.01,2013-04-21 06:05:00,
2013-04-21 01:06:00,66.1,57.6,30.00,SE,134,5.2,15.2,74,0.00,,---,0.00,,VWS V14.01,2013-04-21 06:06:00,
2013-04-21 01:10:00,66.0,57.5,30.00,East,97,6.2,15.2,74,0.00,,---,0.00,0.00,VWS V14.01,2013-04-21 06:10:00,
2013-04-21 01:11:00,66.0,57.5,30.00,ESE,105,6.2,6.2,74,0.00,,---,0.00,,VWS V14.01,2013-04-21 06:11:00,
2013-04-21 01:15:00,66.0,56.7,30.00,East,97,4.2,17.2,72,0.00,,---,0.00,0.00,VWS V14.01,2013-04-21 06:15:00,
2013-04-21 01:16:00,66.0,56.7,30.00,SE,125,10.2,10.2,72,0.00,,---,0.00,,VWS V14.01,2013-04-21 06:16:00,
2013-04-21 01:20:00,66.0,56.7,30.00,SE,135,7.2,11.2,72,0.00,,---,0.00,0.00,VWS V14.01,2013-04-21 06:20:00,
2013-04-21 01:21:00,66.0,56.7,30.00,SE,135,7.2,7.2,72,0.00,,---,0.00,,VWS V14.01,2013-04-21 06:21:00,
2013-04-21 01:25:00,66.0,57.1,30.00,ESE,115,5.2,13.2,73,0.00,,---,0.00,0.00,VWS V14.01,2013-04-21 06:25:00,
2013-04-21 01:26:00,66.0,57.1,30.00,ESE,115,4.2,5.2,73,0.00,,---,0.00,,VWS V14.01,2013-04-21 06:26:00,
2013-04-21 01:30:00,66.0,57.1,29.99,ESE,104,6.2,12.2,73,0.00,,---,0.00,0.00,VWS V14.01,2013-04-21 06:30:00,
2013-04-21 01:31:00,66.0,57.1,29.99,ESE,115,7.2,7.2,73,0.00,,---,0.00,,VWS V14.01,2013-04-21 06:31:00,
2013-04-21 01:35:00,65.8,56.9,29.99,SE,127,7.2,12.2,73,0.00,,---,0.00,0.00,VWS V14.01,2013-04-21 06:35:00,
2013-04-21 01:36:00,65.8,56.9,29.99,SE,135,7.2,7.2,73,0.00,,---,0.00,,VWS V14.01,2013-04-21 06:36:00,
2013-04-21 01:40:00,65.8,56.5,29.99,SE,140,10.2,12.2,72,0.00,,---,0.00,0.00,VWS V14.01,2013-04-21 06:40:00,
2013-04-21 01:41:00,65.8,56.5,29.99,ESE,106,6.2,10.2,72,0.00,,---,0.00,,VWS V14.01,2013-04-21 06:41:00,
2013-04-21 01:45:00,65.8,56.9,29.99,ESE,111,7.2,12.2,73,0.00,,---,0.00,0.00,VWS V14.01,2013-04-21 06:45:00,
2013-04-21 01:46:00,65.8,56.9,29.99,ESE,115,7.2,7.2,73,0.00,,---,0.00,,VWS V14.01,2013-04-21 06:46:00,
2013-04-21 01:50:00,65.8,56.9,29.99,SE,143,9.2,13.2,73,0.00,,---,0.00,0.00,VWS V14.01,2013-04-21 06:50:00,
2013-04-21 01:51:00,65.8,56.9,29.99,SE,143,7.2,9.2,73,0.00,,---,0.00,,VWS V14.01,2013-04-21 06:51:00,
2013-04-21 01:55:00,65.8,57.3,29.99,ESE,123,6.2,10.2,74,0.00,,---,0.00,0.00,VWS V14.01,2013-04-21 06:55:00,
2013-04-21 01:56:00,65.8,57.3,29.99,ESE,123,6.2,10.2,74,0.00,,---,0.00,,VWS V14.01,2013-04-21 06:56:00,
2013-04-21 02:00:00,65.8,57.3,29.98,SE,134,5.2,11.2,74,0.00,,---,0.00,0.00,VWS V14.01,2013-04-21 07:00:00,
2013-04-21 02:01:00,65.8,57.3,29.98,SE,134,5.2,11.2,74,0.00,,---,0.00,,VWS V14.01,2013-04-21 07:01:00,
2013-04-21 02:05:00,65.6,57.1,29.98,SE,140,5.2,11.2,74,0.00,,---,0.00,0.00,VWS V14.01,2013-04-21 07:05:00,
2013-04-21 02:06:00,65.6,57.1,29.98,SE,141,4.2,5.2,74,0.00,,---,0.00,,VWS V14.01,2013-04-21 07:06:00,
2013-04-21 02:10:00,65.8,56.9,29.98,ESE,114,4.2,13.2,73,0.00,,---,0.00,0.00,VWS V14.01,2013-04-21 07:10:00,
2013-04-21 02:11:00,65.8,56.9,29.98,ESE,114,4.2,13.2,73,0.00,,---,0.00,,VWS V14.01,2013-04-21 07:11:00,
2013-04-21 02:15:00,65.8,57.3,29.97,SE,137,8.2,11.2,74,0.00,,---,0.00,0.00,VWS V14.01,2013-04-21 07:15:00,
2013-04-21 02:16:00,65.8,57.3,29.97,ESE,108,6.2,8.2,74,0.00,,---,0.00,,VWS V14.01,2013-04-21 07:16:00,
2013-04-21 02:20:00,65.8,57.3,29.97,SE,133,8.2,14.2,74,0.00,,---,0.00,0.00,VWS V14.01,2013-04-21 07:20:00,
2013-04-21 02:21:00,65.8,57.3,29.97,SE,133,8.2,14.2,74,0.00,,---,0.00,,VWS V14.01,2013-04-21 07:21:00,
2013-04-21 02:25:00,65.8,57.3,29.97,SE,139,8.2,14.2,74,0.00,,---,0.00,0.00,VWS V14.01,2013-04-21 07:25:00,
2013-04-21 02:26:00,65.8,57.3,29.97,SE,139,8.2,14.2,74,0.00,,---,0.00,,VWS V14.01,2013-04-21 07:26:00,
2013-04-21 02:30:00,65.8,56.9,29.96,ESE,118,9.2,17.2,73,0.00,,---,0.00,0.00,VWS V14.01,2013-04-21 07:30:00,
2013-04-21 02:31:00,65.8,56.9,29.96,ESE,118,9.2,17.2,73,0.00,,---,0.00,,VWS V14.01,2013-04-21 07:31:00,
2013-04-21 02:35:00,65.8,57.3,29.96,ESE,123,5.2,13.2,74,0.00,,---,0.00,0.00,VWS V14.01,2013-04-21 07:35:00,
2013-04-21 02:36:00,65.8,57.3,29.96,ESE,123,5.2,13.2,74,0.00,,---,0.00,,VWS V14.01,2013-04-21 07:36:00,
2013-04-21 02:40:00,65.6,57.1,29.96,SE,141,10.2,12.2,74,0.00,,---,0.00,0.00,VWS V14.01,2013-04-21 07:40:00,
2013-04-21 02:41:00,65.6,57.1,29.96,East,90,6.2,12.2,74,0.00,,---,0.00,,VWS V14.01,2013-04-21 07:41:00,
2013-04-21 02:45:00,65.6,57.1,29.96,ESE,115,4.2,13.2,74,0.00,,---,0.00,0.00,VWS V14.01,2013-04-21 07:45:00,
2013-04-21 02:46:00,65.6,57.1,29.96,ESE,115,6.2,13.2,74,0.00,,---,0.00,,VWS V14.01,2013-04-21 07:46:00,
2013-04-21 02:50:00,65.6,57.1,29.96,ESE,116,5.2,11.2,74,0.00,,---,0.00,0.00,VWS V14.01,2013-04-21 07:50:00,
2013-04-21 02:51:00,65.6,57.1,29.96,ESE,116,5.2,11.2,74,0.00,,---,0.00,,VWS V14.01,2013-04-21 07:51:00,
2013-04-21 02:55:00,65.6,57.1,29.96,ESE,121,6.2,11.2,74,0.00,,---,0.00,0.00,VWS V14.01,2013-04-21 07:55:00,
2013-04-21 02:56:00,65.6,57.1,29.96,ESE,121,6.2,11.2,74,0.00,,---,0.00,,VWS V14.01,2013-04-21 07:56:00,
2013-04-21 03:00:00,65.5,57.0,29.96,SE,141,7.2,11.2,74,0.00,,---,0.00,0.00,VWS V14.01,2013-04-21 08:00:00,
2013-04-21 03:01:00,65.5,57.0,29.96,SE,141,7.2,11.2,74,0.00,,---,0.00,,VWS V14.01,2013-04-21 08:01:00,
2013-04-21 03:05:00,65.5,57.0,29.96,East,95,4.2,11.2,74,0.00,,---,0.00,0.00,VWS V14.01,2013-04-21 08:05:00,
2013-04-21 03:06:00,65.5,57.0,29.96,East,95,4.2,11.2,74,0.00,,---,0.00,,VWS V14.01,2013-04-21 08:06:00,
2013-04-21 03:10:00,65.5,57.0,29.96,ESE,105,5.2,12.2,74,0.00,,---,0.00,0.00,VWS V14.01,2013-04-21 08:10:00,
2013-04-21 03:11:00,65.5,57.0,29.96,East,99,5.2,12.2,74,0.00,,---,0.00,,VWS V14.01,2013-04-21 08:11:00,
2013-04-21 03:15:00,65.6,57.1,29.96,SE,137,11.2,12.2,74,0.00,,---,0.00,0.00,VWS V14.01,2013-04-21 08:15:00,
2013-04-21 03:16:00,65.6,57.1,29.96,SE,138,11.2,12.2,74,0.00,,---,0.00,,VWS V14.01,2013-04-21 08:16:00,
2013-04-21 03:20:00,65.6,57.1,29.96,SE,136,12.2,12.2,74,0.00,,---,0.00,0.00,VWS V14.01,2013-04-21 08:20:00,
2013-04-21 03:21:00,65.6,57.1,29.96,SE,136,12.2,12.2,74,0.00,,---,0.00,,VWS V14.01,2013-04-21 08:21:00,
2013-04-21 03:25:00,65.8,57.3,29.96,SE,140,7.2,12.2,74,0.00,,---,0.00,0.00,VWS V14.01,2013-04-21 08:25:00,
2013-04-21 03:26:00,65.8,57.7,29.96,SE,138,7.2,12.2,75,0.00,,---,0.00,,VWS V14.01,2013-04-21 08:26:00,
2013-04-21 03:30:00,65.8,57.7,29.96,ESE,109,5.2,11.2,75,0.00,,---,0.00,0.00,VWS V14.01,2013-04-21 08:30:00,
2013-04-21 03:31:00,65.8,57.7,29.96,ESE,109,5.2,11.2,75,0.00,,---,0.00,,VWS V14.01,2013-04-21 08:31:00,
2013-04-21 03:35:00,66.0,58.2,29.96,ESE,119,4.2,11.2,76,0.00,,---,0.00,0.00,VWS V14.01,2013-04-21 08:35:00,
2013-04-21 03:36:00,66.0,58.2,29.96,ESE,119,5.2,11.2,76,0.00,,---,0.00,,VWS V14.01,2013-04-21 08:36:00,
2013-04-21 03:40:00,66.0,58.2,29.96,ESE,123,12.2,14.2,76,0.00,,---,0.00,0.00,VWS V14.01,2013-04-21 08:40:00,
2013-04-21 03:41:00,66.0,58.2,29.96,ESE,115,14.2,14.2,76,0.00,,---,0.00,,VWS V14.01,2013-04-21 08:41:00,
2013-04-21 03:45:00,65.8,57.7,29.96,ESE,115,5.2,13.2,75,0.00,,---,0.00,0.00,VWS V14.01,2013-04-21 08:45:00,
2013-04-21 03:46:00,65.8,57.7,29.96,ESE,115,8.2,13.2,75,0.00,,---,0.00,,VWS V14.01,2013-04-21 08:46:00,
2013-04-21 03:50:00,65.8,57.3,29.96,ESE,109,11.2,13.2,74,0.00,,---,0.00,0.00,VWS V14.01,2013-04-21 08:50:00,
2013-04-21 03:51:00,65.8,57.3,29.96,SE,124,9.2,13.2,74,0.00,,---,0.00,,VWS V14.01,2013-04-21 08:51:00,
2013-04-21 03:55:00,65.8,57.3,29.96,ESE,112,5.2,14.2,74,0.00,,---,0.00,0.00,VWS V14.01,2013-04-21 08:55:00,
2013-04-21 03:56:00,65.8,57.3,29.96,ESE,114,7.2,14.2,74,0.00,,---,0.00,,VWS V14.01,2013-04-21 08:56:00,
2013-04-21 04:00:00,65.8,56.5,29.97,SE,129,4.2,14.2,72,0.00,,---,0.00,0.00,VWS V14.01,2013-04-21 09:00:00,
2013-04-21 04:01:00,65.8,56.5,29.97,SE,129,6.2,14.2,72,0.00,,---,0.00,,VWS V14.01,2013-04-21 09:01:00,
2013-04-21 04:05:00,65.8,56.9,29.97,SE,133,6.2,12.2,73,0.00,,---,0.00,0.00,VWS V14.01,2013-04-21 09:05:00,
2013-04-21 04:06:00,65.8,56.9,29.97,SE,131,7.2,12.2,73,0.00,,---,0.00,,VWS V14.01,2013-04-21 09:06:00,
2013-04-21 04:10:00,65.8,57.3,29.97,East,99,6.2,12.2,74,0.00,,---,0.00,0.00,VWS V14.01,2013-04-21 09:10:00,
2013-04-21 04:11:00,65.8,57.3,29.97,SE,144,7.2,12.2,74,0.00,,---,0.00,,VWS V14.01,2013-04-21 09:11:00,
2013-04-21 04:15:00,65.8,57.7,29.97,ESE,111,7.2,11.2,75,0.00,,---,0.00,0.00,VWS V14.01,2013-04-21 09:15:00,
2013-04-21 04:16:00,65.8,57.3,29.97,ESE,111,5.2,11.2,74,0.00,,---,0.00,,VWS V14.01,2013-04-21 09:16:00,
2013-04-21 04:20:00,65.6,57.5,29.97,ESE,111,5.2,10.2,75,0.00,,---,0.00,0.00,VWS V14.01,2013-04-21 09:20:00,
2013-04-21 04:21:00,65.6,57.5,29.97,East,93,7.2,10.2,75,0.00,,---,0.00,,VWS V14.01,2013-04-21 09:21:00,
2013-04-21 04:25:00,65.5,57.4,29.97,East,101,6.2,8.2,75,0.00,,---,0.00,0.00,VWS V14.01,2013-04-21 09:25:00,
2013-04-21 04:26:00,65.5,57.4,29.97,SE,129,6.2,8.2,75,0.00,,---,0.00,,VWS V14.01,2013-04-21 09:26:00,
2013-04-21 04:30:00,65.5,57.7,29.96,ESE,107,8.2,10.2,76,0.00,,---,0.00,0.00,VWS V14.01,2013-04-21 09:30:00,
2013-04-21 04:31:00,65.5,57.7,29.96,ESE,109,5.2,10.2,76,0.00,,---,0.00,,VWS V14.01,2013-04-21 09:31:00,
2013-04-21 04:35:00,65.3,57.5,29.96,SE,141,4.2,11.2,76,0.00,,---,0.00,0.00,VWS V14.01,2013-04-21 09:35:00,
2013-04-21 04:36:00,65.3,57.5,29.96,SE,142,7.2,11.2,76,0.00,,---,0.00,,VWS V14.01,2013-04-21 09:36:00,
2013-04-21 04:40:00,65.3,57.2,29.96,SE,137,6.2,10.2,75,0.00,,---,0.00,0.00,VWS V14.01,2013-04-21 09:40:00,
2013-04-21 04:41:00,65.3,57.2,29.96,ESE,114,6.2,10.2,75,0.00,,---,0.00,,VWS V14.01,2013-04-21 09:41:00,
2013-04-21 04:45:00,65.3,57.2,29.96,SE,124,7.2,8.2,75,0.00,,---,0.00,0.00,VWS V14.01,2013-04-21 09:45:00,
2013-04-21 04:46:00,65.3,57.2,29.96,ESE,114,4.2,8.2,75,0.00,,---,0.00,,VWS V14.01,2013-04-21 09:46:00,
2013-04-21 04:50:00,65.3,57.2,29.96,ESE,113,4.2,11.2,75,0.00,,---,0.00,0.00,VWS V14.01,2013-04-21 09:50:00,
2013-04-21 04:51:00,65.3,57.2,29.96,ESE,106,7.2,11.2,75,0.00,,---,0.00,,VWS V14.01,2013-04-21 09:51:00,
2013-04-21 04:55:00,65.5,57.4,29.96,SSE,148,3.2,11.2,75,0.00,,---,0.00,0.00,VWS V14.01,2013-04-21 09:55:00,
2013-04-21 04:56:00,65.5,57.4,29.96,SSE,148,4.2,11.2,75,0.00,,---,0.00,,VWS V14.01,2013-04-21 09:56:00,
2013-04-21 05:00:00,65.5,57.4,29.97,SE,142,4.2,9.2,75,0.00,,---,0.00,0.00,VWS V14.01,2013-04-21 10:00:00,
2013-04-21 05:01:00,65.5,57.4,29.97,SE,142,5.2,9.2,75,0.00,,---,0.00,,VWS V14.01,2013-04-21 10:01:00,
2013-04-21 05:05:00,65.6,57.8,29.97,SE,140,6.2,9.2,76,0.00,,---,0.00,0.00,VWS V14.01,2013-04-21 10:05:00,
2013-04-21 05:06:00,65.5,57.7,29.97,SE,139,3.2,9.2,76,0.00,,---,0.00,,VWS V14.01,2013-04-21 10:06:00,
2013-04-21 05:10:00,65.5,57.7,29.97,SE,143,8.2,11.2,76,0.00,,---,0.00,0.00,VWS V14.01,2013-04-21 10:10:00,
2013-04-21 05:11:00,65.5,57.7,29.97,SE,146,8.2,11.2,76,0.00,,---,0.00,,VWS V14.01,2013-04-21 10:11:00,
2013-04-21 05:15:00,65.5,57.7,29.97,ESE,121,5.2,10.2,76,0.00,,---,0.00,0.00,VWS V14.01,2013-04-21 10:15:00,
2013-04-21 05:16:00,65.5,57.7,29.97,SE,146,10.2,10.2,76,0.00,,---,0.00,,VWS V14.01,2013-04-21 10:16:00,
2013-04-21 05:20:00,65.5,57.7,29.97,ESE,113,5.2,10.2,76,0.00,,---,0.00,0.00,VWS V14.01,2013-04-21 10:20:00,
2013-04-21 05:21:00,65.5,57.7,29.97,ESE,113,4.2,10.2,76,0.00,,---,0.00,,VWS V14.01,2013-04-21 10:21:00,
2013-04-21 05:25:00,65.3,57.5,29.97,SE,140,4.2,10.2,76,0.00,,---,0.00,0.00,VWS V14.01,2013-04-21 10:25:00,
2013-04-21 05:26:00,65.3,57.5,29.97,SE,140,4.2,10.2,76,0.00,,---,0.00,,VWS V14.01,2013-04-21 10:26:00,
2013-04-21 05:30:00,65.3,57.5,29.97,SE,133,4.2,7.2,76,0.00,,---,0.00,0.00,VWS V14.01,2013-04-21 10:30:00,
2013-04-21 05:31:00,65.3,57.5,29.97,SE,133,5.2,7.2,76,0.00,,---,0.00,,VWS V14.01,2013-04-21 10:31:00,
2013-04-21 05:35:00,65.3,57.9,29.97,SE,140,2.2,7.2,77,0.00,,---,0.00,0.00,VWS V14.01,2013-04-21 10:35:00,
2013-04-21 05:36:00,65.3,57.9,29.97,SE,140,4.2,7.2,77,0.00,,---,0.00,,VWS V14.01,2013-04-21 10:36:00,
2013-04-21 05:40:00,65.2,57.8,29.97,SE,141,4.2,5.2,77,0.00,,---,0.00,0.00,VWS V14.01,2013-04-21 10:40:00,
2013-04-21 05:41:00,65.2,57.8,29.97,SE,141,5.2,5.2,77,0.00,,---,0.00,,VWS V14.01,2013-04-21 10:41:00,
2013-04-21 05:45:00,65.2,57.8,29.97,SE,141,5.2,6.2,77,0.00,,---,0.00,0.00,VWS V14.01,2013-04-21 10:45:00,
2013-04-21 05:46:00,65.2,57.8,29.97,SE,141,2.2,6.2,77,0.00,,---,0.00,,VWS V14.01,2013-04-21 10:46:00,
2013-04-21 05:50:00,65.2,58.2,29.97,SE,141,3.2,5.2,78,0.00,,---,0.00,0.00,VWS V14.01,2013-04-21 10:50:00,
2013-04-21 05:51:00,65.2,58.2,29.97,SE,141,2.2,5.2,78,0.00,,---,0.00,,VWS V14.01,2013-04-21 10:51:00,
2013-04-21 05:55:00,65.2,58.2,29.97,SSE,150,1.2,7.2,78,0.00,,---,0.00,0.00,VWS V14.01,2013-04-21 10:55:00,
2013-04-21 05:56:00,65.2,58.2,29.97,SSE,150,3.2,7.2,78,0.00,,---,0.00,,VWS V14.01,2013-04-21 10:56:00,
2013-04-21 06:00:00,65.2,58.5,29.97,SSE,148,2.2,6.2,79,0.00,,---,0.00,0.00,VWS V14.01,2013-04-21 11:00:00,
2013-04-21 06:01:00,65.2,58.5,29.97,SSE,148,4.2,6.2,79,0.00,,---,0.00,,VWS V14.01,2013-04-21 11:01:00,
2013-04-21 06:05:00,65.2,58.9,29.97,SSE,148,2.2,5.2,80,0.00,,---,0.00,0.00,VWS V14.01,2013-04-21 11:05:00,
2013-04-21 06:06:00,65.2,58.9,29.97,SSE,148,2.2,5.2,80,0.00,,---,0.00,,VWS V14.01,2013-04-21 11:06:00,
2013-04-21 06:10:00,65.0,58.7,29.97,SSE,148,1.2,4.2,80,0.00,,---,0.00,0.00,VWS V14.01,2013-04-21 11:10:00,
2013-04-21 06:11:00,65.0,58.7,29.97,SSE,148,1.2,4.2,80,0.00,,---,0.00,,VWS V14.01,2013-04-21 11:11:00,
2013-04-21 06:15:00,65.0,58.7,29.98,SSE,148,1.2,6.2,80,0.00,,---,0.00,0.00,VWS V14.01,2013-04-21 11:15:00,
2013-04-21 06:16:00,65.0,58.7,29.98,SSE,148,2.2,6.2,80,0.00,,---,0.00,,VWS V14.01,2013-04-21 11:16:00,
2013-04-21 06:20:00,65.0,59.0,29.98,SSE,148,1.2,5.2,81,0.00,,---,0.00,0.00,VWS V14.01,2013-04-21 11:20:00,
2013-04-21 06:21:00,65.0,59.0,29.98,SSE,148,1.2,5.2,81,0.00,,---,0.00,,VWS V14.01,2013-04-21 11:21:00,
2013-04-21 06:25:00,64.8,58.8,29.98,SSE,148,1.2,4.2,81,0.00,,---,0.00,0.00,VWS V14.01,2013-04-21 11:25:00,
2013-04-21 06:26:00,64.8,58.8,29.98,SSE,148,1.2,4.2,81,0.00,,---,0.00,,VWS V14.01,2013-04-21 11:26:00,
2013-04-21 06:30:00,64.7,58.7,29.98,SSE,148,1.2,4.2,81,0.00,,---,0.00,0.00,VWS V14.01,2013-04-21 11:30:00,
2013-04-21 06:31:00,64.7,58.7,29.98,SSE,148,1.2,4.2,81,0.00,,---,0.00,,VWS V14.01,2013-04-21 11:31:00,
2013-04-21 06:35:00,64.5,58.5,29.98,SSE,148,1.2,3.2,81,0.00,,---,0.00,0.00,VWS V14.01,2013-04-21 11:35:00,
2013-04-21 06:36:00,64.5,58.5,29.98,SSE,148,1.2,3.2,81,0.00,,---,0.00,,VWS V14.01,2013-04-21 11:36:00,
2013-04-21 06:40:00,64.3,58.3,29.98,SSE,148,1.2,1.2,81,0.00,,---,0.00,0.00,VWS V14.01,2013-04-21 11:40:00,
2013-04-21 06:41:00,64.3,58.3,29.98,SSE,148,1.2,1.2,81,0.00,,---,0.00,,VWS V14.01,2013-04-21 11:41:00,
2013-04-21 06:45:00,64.2,58.6,29.99,SSE,148,1.2,1.2,82,0.00,,---,0.00,,VWS V14.01,2013-04-21 11:45:00,
2013-04-21 06:50:00,64.0,58.4,29.99,SSE,148,1.2,1.2,82,0.00,,---,0.00,,VWS V14.01,2013-04-21 11:50:00,
2013-04-21 06:55:00,63.7,58.1,29.99,SSE,148,1.2,1.2,82,0.00,,---,0.00,,VWS V14.01,2013-04-21 11:55:00,
2013-04-21 07:00:00,63.4,58.2,29.99,SSE,148,1.2,1.2,83,0.00,,---,0.00,,VWS V14.01,2013-04-21 12:00:00,
2013-04-21 07:05:00,63.2,58.0,29.99,SSE,148,1.2,1.2,83,0.00,,---,0.00,,VWS V14.01,2013-04-21 12:05:00,
2013-04-21 07:10:00,63.1,58.2,29.99,SSE,148,1.2,1.2,84,0.00,,---,0.00,,VWS V14.01,2013-04-21 12:10:00,
2013-04-21 07:15:00,63.1,58.2,29.99,SSE,148,1.2,1.2,84,0.00,,---,0.00,,VWS V14.01,2013-04-21 12:15:00,
2013-04-21 07:20:00,63.1,58.5,29.99,SSE,148,1.2,1.2,85,0.00,,---,0.00,,VWS V14.01,2013-04-21 12:20:00,
2013-04-21 07:25:00,63.1,58.5,29.99,SSE,148,1.2,1.2,85,0.00,,---,0.00,,VWS V14.01,2013-04-21 12:25:00,
2013-04-21 07:30:00,62.9,58.7,30.00,SSE,148,1.2,1.2,86,0.00,,---,0.00,,VWS V14.01,2013-04-21 12:30:00,
2013-04-21 07:35:00,62.9,58.7,30.00,SSE,148,1.2,1.2,86,0.00,,---,0.00,,VWS V14.01,2013-04-21 12:35:00,
2013-04-21 07:40:00,62.7,58.5,30.00,SSE,148,1.2,1.2,86,0.00,,---,0.00,,VWS V14.01,2013-04-21 12:40:00,
2013-04-21 07:45:00,62.6,58.4,30.01,SSE,148,1.2,1.2,86,0.00,,---,0.00,,VWS V14.01,2013-04-21 12:45:00,
2013-04-21 07:50:00,62.6,58.7,30.01,SSE,148,1.2,1.2,87,0.00,,---,0.00,,VWS V14.01,2013-04-21 12:50:00,
2013-04-21 07:55:00,62.9,59.3,30.01,SSE,148,1.2,1.2,88,0.00,,---,0.00,,VWS V14.01,2013-04-21 12:55:00,
2013-04-21 08:00:00,63.5,59.9,30.01,SSE,148,1.2,1.2,88,0.00,,---,0.00,,VWS V14.01,2013-04-21 13:00:00,
2013-04-21 08:05:00,64.2,60.6,30.01,SSE,148,1.2,1.2,88,0.00,,---,0.00,,VWS V14.01,2013-04-21 13:05:00,
2013-04-21 08:10:00,65.0,61.0,30.01,SSE,148,1.2,1.2,87,0.00,,---,0.00,,VWS V14.01,2013-04-21 13:10:00,
2013-04-21 08:15:00,65.6,61.3,30.01,SSE,148,1.2,1.2,86,0.00,,---,0.00,,VWS V14.01,2013-04-21 13:15:00,
2013-04-21 08:20:00,66.3,61.3,30.01,SSE,148,3.2,3.2,84,0.00,,---,0.00,,VWS V14.01,2013-04-21 13:20:00,
2013-04-21 08:25:00,66.9,60.9,30.01,SE,146,3.2,5.2,81,0.00,,---,0.00,,VWS V14.01,2013-04-21 13:25:00,
2013-04-21 08:30:00,67.6,60.9,30.02,SE,146,4.2,5.2,79,0.00,,---,0.00,,VWS V14.01,2013-04-21 13:30:00,
2013-04-21 08:35:00,67.9,60.4,30.02,SE,144,5.2,5.2,77,0.00,,---,0.00,,VWS V14.01,2013-04-21 13:35:00,
2013-04-21 08:40:00,68.3,60.5,30.02,SE,140,3.2,5.2,76,0.00,,---,0.00,,VWS V14.01,2013-04-21 13:40:00,
2013-04-21 08:45:00,68.4,60.2,30.03,SE,140,3.2,5.2,75,0.00,,---,0.00,,VWS V14.01,2013-04-21 13:45:00,
2013-04-21 08:50:00,68.8,60.6,30.03,SE,136,3.2,4.2,75,0.00,,---,0.00,,VWS V14.01,2013-04-21 13:50:00,
2013-04-21 08:55:00,68.9,60.3,30.03,SE,136,2.2,6.2,74,0.00,,---,0.00,,VWS V14.01,2013-04-21 13:55:00,
2013-04-21 09:00:00,69.3,60.7,30.03,SE,131,3.2,4.2,74,0.00,,---,0.00,,VWS V14.01,2013-04-21 14:00:00,
2013-04-21 09:05:00,69.8,60.8,30.03,ESE,111,3.2,5.2,73,0.00,,---,0.00,,VWS V14.01,2013-04-21 14:05:00,
2013-04-21 09:10:00,69.9,60.5,30.03,ESE,116,3.2,6.2,72,0.00,,---,0.00,,VWS V14.01,2013-04-21 14:10:00,
2013-04-21 09:15:00,70.4,60.6,30.03,ESE,110,5.2,5.2,71,0.00,,---,0.00,,VWS V14.01,2013-04-21 14:15:00,
2013-04-21 09:20:00,70.8,60.9,30.03,ESE,111,4.2,6.2,71,0.00,,---,0.00,,VWS V14.01,2013-04-21 14:20:00,
2013-04-21 09:25:00,70.4,60.2,30.03,ESE,123,3.2,6.2,70,0.00,,---,0.00,,VWS V14.01,2013-04-21 14:25:00,
2013-04-21 09:30:00,70.6,60.8,30.04,ESE,123,2.2,6.2,71,0.00,,---,0.00,,VWS V14.01,2013-04-21 14:30:00,
2013-04-21 09:35:00,70.9,60.6,30.04,ESE,123,3.2,5.2,70,0.00,,---,0.00,,VWS V14.01,2013-04-21 14:35:00,
2013-04-21 09:40:00,71.3,61.0,30.04,SE,126,4.2,6.2,70,0.00,,---,0.00,,VWS V14.01,2013-04-21 14:40:00,
2013-04-21 09:45:00,71.8,61.1,30.04,SE,129,4.2,6.2,69,0.00,,---,0.00,,VWS V14.01,2013-04-21 14:45:00,
2013-04-21 09:50:00,72.0,60.9,30.04,ESE,114,5.2,6.2,68,0.00,,---,0.00,,VWS V14.01,2013-04-21 14:50:00,
2013-04-21 09:55:00,71.8,60.7,30.04,ESE,115,3.2,6.2,68,0.00,,---,0.00,,VWS V14.01,2013-04-21 14:55:00,
2013-04-21 10:00:00,72.1,61.0,30.04,ENE,71,5.2,6.2,68,0.00,,---,0.00,,VWS V14.01,2013-04-21 15:00:00,
2013-04-21 10:05:00,72.1,60.5,30.04,ESE,117,3.2,6.2,67,0.00,,---,0.00,,VWS V14.01,2013-04-21 15:05:00,
2013-04-21 10:10:00,72.0,60.5,30.04,ESE,118,4.2,6.2,67,0.00,,---,0.00,,VWS V14.01,2013-04-21 15:10:00,
2013-04-21 10:15:00,72.1,60.1,30.04,ESE,109,6.2,11.2,66,0.00,,---,0.00,,VWS V14.01,2013-04-21 15:15:00,
2013-04-21 10:20:00,72.0,60.5,30.04,SE,128,6.2,10.2,67,0.00,,---,0.00,,VWS V14.01,2013-04-21 15:20:00,
2013-04-21 10:25:00,72.0,60.5,30.04,SSE,147,7.2,7.2,67,0.00,,---,0.00,,VWS V14.01,2013-04-21 15:25:00,
2013-04-21 10:30:00,72.5,60.5,30.04,SE,142,6.2,6.2,66,0.00,,---,0.00,,VWS V14.01,2013-04-21 15:30:00,
2013-04-21 10:35:00,72.7,60.3,30.04,SE,133,4.2,10.2,65,0.00,,---,0.00,,VWS V14.01,2013-04-21 15:35:00,
2013-04-21 10:40:00,72.7,60.3,30.04,SE,142,3.2,8.2,65,0.00,,---,0.00,,VWS V14.01,2013-04-21 15:40:00,
2013-04-21 10:45:00,73.9,60.5,30.04,SSE,149,5.2,10.2,63,0.00,,---,0.00,,VWS V14.01,2013-04-21 15:45:00,
2013-04-21 10:50:00,73.5,60.2,30.04,South,171,8.2,8.2,63,0.00,,---,0.00,,VWS V14.01,2013-04-21 15:50:00,
2013-04-21 10:55:00,74.0,60.6,30.04,ESE,104,7.2,8.2,63,0.00,,---,0.00,,VWS V14.01,2013-04-21 15:55:00,
2013-04-21 11:00:00,74.0,60.6,30.04,SSE,156,4.2,10.2,63,0.00,,---,0.00,,VWS V14.01,2013-04-21 16:00:00,
2013-04-21 11:05:00,73.9,60.1,30.04,SE,130,2.2,11.2,62,0.00,,---,0.00,,VWS V14.01,2013-04-21 16:05:00,
2013-04-21 11:10:00,73.3,60.0,30.04,ESE,117,7.2,9.2,63,0.00,,---,0.00,,VWS V14.01,2013-04-21 16:10:00,
2013-04-21 11:15:00,73.7,60.8,30.04,East,97,2.2,8.2,64,0.00,,---,0.00,,VWS V14.01,2013-04-21 16:15:00,
2013-04-21 11:20:00,73.9,60.5,30.04,SE,139,5.2,11.2,63,0.00,,---,0.00,,VWS V14.01,2013-04-21 16:20:00,
2013-04-21 11:25:00,73.7,60.3,30.04,SE,142,4.2,10.2,63,0.00,,---,0.00,,VWS V14.01,2013-04-21 16:25:00,
2013-04-21 11:30:00,74.2,60.8,30.04,SE,134,2.2,10.2,63,0.00,,---,0.00,,VWS V14.01,2013-04-21 16:30:00,
2013-04-21 11:35:00,74.9,61.0,30.04,SE,132,5.2,8.2,62,0.00,,---,0.00,,VWS V14.01,2013-04-21 16:35:00,
2013-04-21 11:40:00,75.1,61.2,30.04,ESE,105,5.2,8.2,62,0.00,,---,0.00,,VWS V14.01,2013-04-21 16:40:00,
2013-04-21 11:45:00,75.1,61.2,30.04,East,80,6.2,9.2,62,0.00,,---,0.00,,VWS V14.01,2013-04-21 16:45:00,
2013-04-21 11:50:00,75.1,61.2,30.04,ESE,121,6.2,11.2,62,0.00,,---,0.00,,VWS V14.01,2013-04-21 16:50:00,
2013-04-21 11:55:00,74.7,61.3,30.04,East,92,6.2,10.2,63,0.00,,---,0.00,,VWS V14.01,2013-04-21 16:55:00,
2013-04-21 12:00:00,75.3,61.8,30.04,East,80,4.2,11.2,63,0.00,,---,0.00,,VWS V14.01,2013-04-21 17:00:00,
2013-04-21 12:05:00,75.6,61.7,30.04,East,88,6.2,13.2,62,0.00,,---,0.00,,VWS V14.01,2013-04-21 17:05:00,
2013-04-21 12:10:00,75.3,61.4,30.04,East,87,6.2,12.2,62,0.00,,---,0.00,,VWS V14.01,2013-04-21 17:10:00,
2013-04-21 12:15:00,74.9,61.0,30.03,ENE,73,9.2,13.2,62,0.00,,---,0.00,,VWS V14.01,2013-04-21 17:15:00,
2013-04-21 12:20:00,75.1,61.2,30.03,ENE,77,4.2,11.2,62,0.00,,---,0.00,,VWS V14.01,2013-04-21 17:20:00,
2013-04-21 12:25:00,75.3,60.9,30.03,East,101,5.2,11.2,61,0.00,,---,0.00,,VWS V14.01,2013-04-21 17:25:00,
2013-04-21 12:30:00,75.3,60.9,30.03,ESE,122,10.2,11.2,61,0.00,,---,0.00,,VWS V14.01,2013-04-21 17:30:00,
2013-04-21 12:35:00,75.3,60.9,30.03,SE,128,11.2,14.2,61,0.00,,---,0.00,,VWS V14.01,2013-04-21 17:35:00,
2013-04-21 12:40:00,75.4,61.9,30.03,ESE,103,8.2,11.2,63,0.00,,---,0.00,,VWS V14.01,2013-04-21 17:40:00,
2013-04-21 12:45:00,75.6,61.2,30.03,East,92,6.2,11.2,61,0.00,,---,0.00,,VWS V14.01,2013-04-21 17:45:00,
2013-04-21 12:50:00,75.8,61.4,30.03,ESE,119,10.2,12.2,61,0.00,,---,0.00,,VWS V14.01,2013-04-21 17:50:00,
2013-04-21 12:55:00,76.0,62.0,30.03,East,93,7.2,10.2,62,0.00,,---,0.00,,VWS V14.01,2013-04-21 17:55:00,
2013-04-21 13:00:00,75.3,61.8,30.02,ESE,104,3.2,11.2,63,0.00,,---,0.00,,VWS V14.01,2013-04-21 18:00:00,
2013-04-21 13:05:00,75.3,61.8,30.02,East,86,7.2,12.2,63,0.00,,---,0.00,,VWS V14.01,2013-04-21 18:05:00,
2013-04-21 13:10:00,75.3,62.3,30.02,East,80,9.2,13.2,64,0.00,,---,0.00,,VWS V14.01,2013-04-21 18:10:00,
2013-04-21 13:15:00,75.3,62.7,30.01,East,101,5.2,11.2,65,0.00,,---,0.00,,VWS V14.01,2013-04-21 18:15:00,
2013-04-21 13:20:00,74.2,62.5,30.01,NE,47,8.2,15.2,67,0.00,,---,0.00,,VWS V14.01,2013-04-21 18:20:00,
2013-04-21 13:25:00,74.2,62.5,30.01,ESE,103,6.2,11.2,67,0.00,,---,0.00,,VWS V14.01,2013-04-21 18:25:00,
2013-04-21 13:30:00,74.4,62.3,30.01,ESE,103,5.2,12.2,66,0.00,,---,0.00,,VWS V14.01,2013-04-21 18:30:00,
2013-04-21 13:35:00,74.7,62.2,30.01,East,93,5.2,12.2,65,0.00,,---,0.00,,VWS V14.01,2013-04-21 18:35:00,
2013-04-21 13:40:00,75.6,62.1,30.01,ENE,58,10.2,12.2,63,0.00,,---,0.00,,VWS V14.01,2013-04-21 18:40:00,
2013-04-21 13:45:00,75.1,61.7,30.00,ENE,71,12.2,13.2,63,0.00,,---,0.00,,VWS V14.01,2013-04-21 18:45:00,
2013-04-21 13:50:00,75.3,62.3,30.00,East,93,6.2,12.2,64,0.00,,---,0.00,,VWS V14.01,2013-04-21 18:50:00,
2013-04-21 13:55:00,75.8,62.3,30.00,East,83,4.2,13.2,63,0.00,,---,0.00,,VWS V14.01,2013-04-21 18:55:00,
2013-04-21 14:00:00,75.3,62.7,30.00,ESE,107,8.2,12.2,65,0.00,,---,0.00,,VWS V14.01,2013-04-21 19:00:00,
2013-04-21 14:05:00,75.1,63.0,30.00,East,90,11.2,14.2,66,0.00,,---,0.00,,VWS V14.01,2013-04-21 19:05:00,
2013-04-21 14:10:00,75.4,62.8,30.00,ENE,63,6.2,11.2,65,0.00,,---,0.00,,VWS V14.01,2013-04-21 19:10:00,
2013-04-21 14:15:00,75.1,62.5,29.99,ENE,71,6.2,14.2,65,0.00,,---,0.00,,VWS V14.01,2013-04-21 19:15:00,
2013-04-21 14:20:00,75.4,63.3,29.99,ENE,70,11.2,12.2,66,0.00,,---,0.00,,VWS V14.01,2013-04-21 19:20:00,
2013-04-21 14:25:00,75.8,62.8,29.99,ENE,66,5.2,13.2,64,0.00,,---,0.00,,VWS V14.01,2013-04-21 19:25:00,
2013-04-21 14:30:00,75.8,62.3,29.99,ESE,115,3.2,11.2,63,0.00,,---,0.00,,VWS V14.01,2013-04-21 19:30:00,
2013-04-21 14:35:00,76.7,64.1,29.99,ESE,109,4.2,11.2,65,0.00,,---,0.00,,VWS V14.01,2013-04-21 19:35:00,
2013-04-21 14:40:00,76.3,62.3,29.99,East,92,11.2,13.2,62,0.00,,---,0.00,,VWS V14.01,2013-04-21 19:40:00,
2013-04-21 14:45:00,74.6,62.5,29.98,ESE,109,8.2,14.2,66,0.00,,---,0.00,,VWS V14.01,2013-04-21 19:45:00,
2013-04-21 14:50:00,75.3,62.3,29.98,ESE,107,6.2,13.2,64,0.00,,---,0.00,,VWS V14.01,2013-04-21 19:50:00,
2013-04-21 14:55:00,75.3,62.7,29.98,East,94,5.2,14.2,65,0.00,,---,0.00,,VWS V14.01,2013-04-21 19:55:00,
2013-04-21 15:00:00,75.8,61.9,29.98,ENE,71,13.2,13.2,62,0.00,,---,0.00,,VWS V14.01,2013-04-21 20:00:00,
2013-04-21 15:05:00,75.1,62.5,29.98,ENE,61,9.2,14.2,65,0.00,,---,0.00,,VWS V14.01,2013-04-21 20:05:00,
2013-04-21 15:10:00,74.9,63.2,29.98,ESE,104,9.2,13.2,67,0.00,,---,0.00,,VWS V14.01,2013-04-21 20:10:00,
2013-04-21 15:15:00,75.3,63.2,29.98,ENE,60,10.2,13.2,66,0.00,,---,0.00,,VWS V14.01,2013-04-21 20:15:00,
2013-04-21 15:20:00,74.6,62.9,29.98,NE,53,8.2,15.2,67,0.00,,---,0.00,,VWS V14.01,2013-04-21 20:20:00,
2013-04-21 15:25:00,75.1,63.4,29.98,ENE,61,10.2,16.2,67,0.00,,---,0.00,,VWS V14.01,2013-04-21 20:25:00,
2013-04-21 15:30:00,75.4,63.7,29.97,ENE,67,10.2,14.2,67,0.00,,---,0.00,,VWS V14.01,2013-04-21 20:30:00,
2013-04-21 15:35:00,75.3,63.2,29.97,East,99,6.2,13.2,66,0.00,,---,0.00,,VWS V14.01,2013-04-21 20:35:00,
2013-04-21 15:40:00,74.7,63.0,29.97,NE,51,5.2,15.2,67,0.00,,---,0.00,,VWS V14.01,2013-04-21 20:40:00,
2013-04-21 15:45:00,74.7,63.0,29.96,East,90,7.2,13.2,67,0.00,,---,0.00,,VWS V14.01,2013-04-21 20:45:00,
2013-04-21 15:50:00,74.2,62.5,29.96,NE,55,11.2,14.2,67,0.00,,---,0.00,,VWS V14.01,2013-04-21 20:50:00,
2013-04-21 15:55:00,74.6,62.9,29.96,ENE,65,13.2,14.2,67,0.00,,---,0.00,,VWS V14.01,2013-04-21 20:55:00,
2013-04-21 16:00:00,75.1,63.8,29.96,East,100,8.2,14.2,68,0.00,,---,0.00,,VWS V14.01,2013-04-21 21:00:00,
2013-04-21 16:05:00,75.1,62.5,29.96,East,86,5.2,14.2,65,0.00,,---,0.00,,VWS V14.01,2013-04-21 21:05:00,
2013-04-21 16:10:00,74.6,62.9,29.96,East,87,5.2,14.2,67,0.00,,---,0.00,,VWS V14.01,2013-04-21 21:10:00,
2013-04-21 16:15:00,74.6,62.9,29.95,East,92,12.2,14.2,67,0.00,,---,0.00,,VWS V14.01,2013-04-21 21:15:00,
2013-04-21 16:20:00,74.6,62.9,29.95,ESE,103,8.2,12.2,67,0.00,,---,0.00,,VWS V14.01,2013-04-21 21:20:00,
2013-04-21 16:25:00,74.6,63.3,29.95,East,96,10.2,15.2,68,0.00,,---,0.00,,VWS V14.01,2013-04-21 21:25:00,
2013-04-21 16:30:00,74.2,63.0,29.95,East,90,7.2,16.2,68,0.00,,---,0.00,,VWS V14.01,2013-04-21 21:30:00,
2013-04-21 16:35:00,74.6,63.3,29.95,ENE,72,12.2,13.2,68,0.00,,---,0.00,,VWS V14.01,2013-04-21 21:35:00,
2013-04-21 16:40:00,74.4,63.6,29.95,ENE,65,6.2,13.2,69,0.00,,---,0.00,,VWS V14.01,2013-04-21 21:40:00,
2013-04-21 16:45:00,74.2,63.4,29.95,East,92,7.2,15.2,69,0.00,,---,0.00,,VWS V14.01,2013-04-21 21:45:00,
2013-04-21 16:50:00,74.0,63.2,29.95,ENE,77,11.2,15.2,69,0.00,,---,0.00,,VWS V14.01,2013-04-21 21:50:00,
2013-04-21 16:55:00,73.9,63.5,29.95,ENE,59,12.2,14.2,70,0.00,,---,0.00,,VWS V14.01,2013-04-21 21:55:00,
2013-04-21 17:00:00,74.0,63.6,29.95,East,88,4.2,14.2,70,0.00,,---,0.00,,VWS V14.01,2013-04-21 22:00:00,
2013-04-21 17:05:00,74.0,64.0,29.95,East,92,13.2,17.2,71,0.00,,---,0.00,,VWS V14.01,2013-04-21 22:05:00,
2013-04-21 17:10:00,74.2,64.2,29.95,ESE,107,9.2,14.2,71,0.00,,---,0.00,,VWS V14.01,2013-04-21 22:10:00,
2013-04-21 17:15:00,73.7,63.7,29.95,East,90,12.2,16.2,71,0.00,,---,0.00,,VWS V14.01,2013-04-21 22:15:00,
2013-04-21 17:20:00,73.5,63.9,29.95,ENE,69,5.2,14.2,72,0.00,,---,0.00,,VWS V14.01,2013-04-21 22:20:00,
2013-04-21 17:25:00,73.7,64.1,29.95,ENE,59,8.2,15.2,72,0.00,,---,0.00,,VWS V14.01,2013-04-21 22:25:00,
2013-04-21 17:30:00,73.9,64.7,29.95,East,90,6.2,13.2,73,0.00,,---,0.00,,VWS V14.01,2013-04-21 22:30:00,
2013-04-21 17:35:00,73.9,64.3,29.95,ESE,113,7.2,15.2,72,0.00,,---,0.00,,VWS V14.01,2013-04-21 22:35:00,
2013-04-21 17:40:00,73.9,64.3,29.95,ENE,74,9.2,14.2,72,0.00,,---,0.00,,VWS V14.01,2013-04-21 22:40:00,
2013-04-21 17:45:00,73.5,64.7,29.95,ENE,78,9.2,16.2,74,0.00,,---,0.00,,VWS V14.01,2013-04-21 22:45:00,
2013-04-21 17:50:00,73.0,63.8,29.95,East,90,12.2,15.2,73,0.00,,---,0.00,,VWS V14.01,2013-04-21 22:50:00,
2013-04-21 17:55:00,73.0,64.6,29.95,ENE,78,7.2,16.2,75,0.00,,---,0.00,,VWS V14.01,2013-04-21 22:55:00,
2013-04-21 18:00:00,72.8,64.4,29.95,East,89,13.2,15.2,75,0.00,,---,0.00,,VWS V14.01,2013-04-21 23:00:00,
2013-04-21 18:05:00,72.7,64.7,29.95,ENE,76,12.2,16.2,76,0.00,,---,0.00,,VWS V14.01,2013-04-21 23:05:00,
2013-04-21 18:10:00,72.3,64.7,29.95,ESE,111,12.2,14.2,77,0.00,,---,0.00,,VWS V14.01,2013-04-21 23:10:00,
2013-04-21 18:15:00,72.1,64.9,29.95,ESE,106,13.2,16.2,78,0.00,,---,0.00,,VWS V14.01,2013-04-21 23:15:00,
2013-04-21 18:20:00,71.8,64.9,29.95,East,93,8.2,14.2,79,0.00,,---,0.00,,VWS V14.01,2013-04-21 23:20:00,
2013-04-21 18:25:00,72.1,65.6,29.95,East,88,9.2,14.2,80,0.00,,---,0.00,,VWS V14.01,2013-04-21 23:25:00,
2013-04-21 18:30:00,71.8,65.3,29.96,East,87,6.2,15.2,80,0.00,,---,0.00,,VWS V14.01,2013-04-21 23:30:00,
2013-04-21 18:35:00,71.5,65.0,29.96,East,80,10.2,17.2,80,0.00,,---,0.00,,VWS V14.01,2013-04-21 23:35:00,
2013-04-21 18:40:00,71.5,65.0,29.96,East,87,6.2,13.2,80,0.00,,---,0.00,,VWS V14.01,2013-04-21 23:40:00,
2013-04-21 18:45:00,71.3,64.8,29.96,ENE,59,12.2,14.2,80,0.00,,---,0.00,,VWS V14.01,2013-04-21 23:45:00,
2013-04-21 18:50:00,70.9,64.8,29.96,East,79,13.2,14.2,81,0.00,,---,0.00,,VWS V14.01,2013-04-21 23:50:00,
2013-04-21 18:55:00,70.6,64.5,29.96,East,85,14.2,15.2,81,0.00,,---,0.00,,VWS V14.01,2013-04-21 23:55:00,
2013-04-21 19:00:00,70.4,64.3,29.96,ESE,103,8.2,14.2,81,0.00,,---,0.00,,VWS V14.01,2013-04-22 00:00:00,
2013-04-21 19:05:00,70.4,64.7,29.96,East,94,11.2,16.2,82,0.00,,---,0.00,,VWS V14.01,2013-04-22 00:05:00,
2013-04-21 19:10:00,70.3,64.6,29.96,East,80,12.2,15.2,82,0.00,,---,0.00,,VWS V14.01,2013-04-22 00:10:00,
2013-04-21 19:15:00,70.1,64.4,29.96,East,95,11.2,15.2,82,0.00,,---,0.00,,VWS V14.01,2013-04-22 00:15:00,
2013-04-21 19:20:00,70.1,64.4,29.96,ENE,72,8.2,16.2,82,0.00,,---,0.00,,VWS V14.01,2013-04-22 00:20:00,
2013-04-21 19:25:00,70.1,64.4,29.96,East,98,10.2,16.2,82,0.00,,---,0.00,,VWS V14.01,2013-04-22 00:25:00,
2013-04-21 19:30:00,69.9,64.2,29.96,East,86,10.2,17.2,82,0.00,,---,0.00,,VWS V14.01,2013-04-22 00:30:00,
2013-04-21 19:35:00,69.9,64.5,29.96,East,84,12.2,13.2,83,0.00,,---,0.00,,VWS V14.01,2013-04-22 00:35:00,
2013-04-21 19:40:00,69.8,64.4,29.96,East,85,12.2,16.2,83,0.00,,---,0.00,,VWS V14.01,2013-04-22 00:40:00,
2013-04-21 19:45:00,69.6,64.2,29.96,East,100,7.2,15.2,83,0.00,,---,0.00,,VWS V14.01,2013-04-22 00:45:00,
2013-04-21 19:50:00,69.4,64.4,29.96,East,86,10.2,14.2,84,0.00,,---,0.00,,VWS V14.01,2013-04-22 00:50:00,
2013-04-21 19:55:00,69.4,64.4,29.96,ENE,76,7.2,14.2,84,0.00,,---,0.00,,VWS V14.01,2013-04-22 00:55:00,
2013-04-21 20:00:00,69.4,64.7,29.97,East,88,12.2,17.2,85,0.00,,---,0.00,,VWS V14.01,2013-04-22 01:00:00,
2013-04-21 20:05:00,69.3,64.6,29.97,NE,50,7.2,17.2,85,0.00,,---,0.00,,VWS V14.01,2013-04-22 01:05:00,
2013-04-21 20:10:00,69.1,64.7,29.97,East,80,8.2,15.2,86,0.00,,---,0.00,,VWS V14.01,2013-04-22 01:10:00,
2013-04-21 20:15:00,69.1,64.7,29.97,ENE,78,9.2,16.2,86,0.00,,---,0.00,,VWS V14.01,2013-04-22 01:15:00,
2013-04-21 20:20:00,69.1,64.7,29.97,ENE,78,8.2,14.2,86,0.00,,---,0.00,,VWS V14.01,2013-04-22 01:20:00,
2013-04-21 20:25:00,68.9,64.9,29.97,East,90,12.2,12.2,87,0.00,,---,0.00,,VWS V14.01,2013-04-22 01:25:00,
2013-04-21 20:30:00,68.9,64.9,29.97,East,81,14.2,14.2,87,0.00,,---,0.00,,VWS V14.01,2013-04-22 01:30:00,
2013-04-21 20:35:00,68.9,65.2,29.98,East,90,11.2,15.2,88,0.00,,---,0.00,,VWS V14.01,2013-04-22 01:35:00,
2013-04-21 20:40:00,68.9,65.2,29.98,NE,56,14.2,15.2,88,0.00,,---,0.00,,VWS V14.01,2013-04-22 01:40:00,
2013-04-21 20:45:00,68.9,65.2,29.98,East,81,14.2,15.2,88,0.00,,---,0.00,,VWS V14.01,2013-04-22 01:45:00,
2013-04-21 20:50:00,68.9,65.2,29.98,East,80,12.2,15.2,88,0.00,,---,0.00,,VWS V14.01,2013-04-22 01:50:00,
2013-04-21 20:55:00,68.9,65.2,29.98,East,81,8.2,15.2,88,0.00,,---,0.00,,VWS V14.01,2013-04-22 01:55:00,
2013-04-21 21:00:00,68.8,65.1,29.98,East,93,15.2,15.2,88,0.00,,---,0.00,,VWS V14.01,2013-04-22 02:00:00,
2013-04-21 21:05:00,68.9,65.2,29.98,East,86,13.2,18.2,88,0.00,,---,0.00,,VWS V14.01,2013-04-22 02:05:00,
2013-04-21 21:10:00,68.8,65.1,29.98,East,91,9.2,15.2,88,0.00,,---,0.00,,VWS V14.01,2013-04-22 02:10:00,
2013-04-21 21:15:00,68.8,65.4,29.98,ENE,67,7.2,15.2,89,0.00,,---,0.00,,VWS V14.01,2013-04-22 02:15:00,
2013-04-21 21:20:00,68.8,65.4,29.99,ENE,74,7.2,13.2,89,0.00,,---,0.00,,VWS V14.01,2013-04-22 02:20:00,
2013-04-21 21:25:00,68.6,65.2,29.99,ENE,62,7.2,14.2,89,0.00,,---,0.00,,VWS V14.01,2013-04-22 02:25:00,
2013-04-21 21:30:00,68.6,65.2,29.99,ENE,74,5.2,12.2,89,0.00,,---,0.00,,VWS V14.01,2013-04-22 02:30:00,
2013-04-21 21:35:00,68.6,65.2,29.99,East,89,7.2,15.2,89,0.00,,---,0.00,,VWS V14.01,2013-04-22 02:35:00,
2013-04-21 21:40:00,68.6,65.2,29.99,East,84,5.2,15.2,89,0.00,,---,0.00,,VWS V14.01,2013-04-22 02:40:00,
2013-04-21 21:45:00,68.6,65.2,29.99,East,94,8.2,16.2,89,0.00,,---,0.00,,VWS V14.01,2013-04-22 02:45:00,
2013-04-21 21:50:00,68.4,65.0,30.00,NE,56,12.2,16.2,89,0.00,,---,0.00,,VWS V14.01,2013-04-22 02:50:00,
2013-04-21 21:55:00,68.6,65.2,30.00,ESE,116,6.2,15.2,89,0.00,,---,0.00,,VWS V14.01,2013-04-22 02:55:00,
2013-04-21 22:00:00,68.6,65.2,30.00,ENE,63,9.2,14.2,89,0.00,,---,0.00,,VWS V14.01,2013-04-22 03:00:00,
2013-04-21 22:05:00,68.6,65.2,30.00,East,86,7.2,15.2,89,0.00,,---,0.00,,VWS V14.01,2013-04-22 03:05:00,
2013-04-21 22:10:00,68.4,65.0,30.00,East,88,8.2,15.2,89,0.00,,---,0.00,,VWS V14.01,2013-04-22 03:10:00,
2013-04-21 22:15:00,68.3,64.9,30.00,East,87,13.2,16.2,89,0.00,,---,0.00,,VWS V14.01,2013-04-22 03:15:00,
2013-04-21 22:20:00,68.4,65.0,30.00,East,86,8.2,14.2,89,0.00,,---,0.00,,VWS V14.01,2013-04-22 03:20:00,
2013-04-21 22:25:00,68.4,65.0,30.00,East,101,11.2,13.2,89,0.00,,---,0.00,,VWS V14.01,2013-04-22 03:25:00,
2013-04-21 22:30:00,68.4,65.0,30.00,East,91,11.2,14.2,89,0.00,,---,0.00,,VWS V14.01,2013-04-22 03:30:00,
2013-04-21 22:35:00,68.4,65.0,30.01,ENE,78,13.2,13.2,89,0.00,,---,0.00,,VWS V14.01,2013-04-22 03:35:00,
2013-04-21 22:40:00,68.4,65.4,30.01,East,81,6.2,17.2,90,0.00,,---,0.00,,VWS V14.01,2013-04-22 03:40:00,
2013-04-21 22:45:00,68.4,65.4,30.01,ESE,108,4.2,13.2,90,0.00,,---,0.00,,VWS V14.01,2013-04-22 03:45:00,
2013-04-21 22:50:00,68.6,65.6,30.01,East,88,7.2,14.2,90,0.00,,---,0.00,,VWS V14.01,2013-04-22 03:50:00,
2013-04-21 22:55:00,68.6,65.2,30.01,NE,48,10.2,13.2,89,0.00,,---,0.00,,VWS V14.01,2013-04-22 03:55:00,
2013-04-21 23:00:00,68.4,65.4,30.01,ENE,75,9.2,13.2,90,0.00,,---,0.00,,VWS V14.01,2013-04-22 04:00:00,
2013-04-21 23:01:00,68.4,65.4,30.01,ENE,74,6.2,13.2,90,0.00,,---,0.00,,VWS V14.01,2013-04-22 04:01:00,
2013-04-21 23:02:00,68.4,65.4,30.01,ESE,103,3.2,12.2,90,0.00,,---,0.00,,VWS V14.01,2013-04-22 04:02:00,
2013-04-21 23:05:00,68.4,65.4,30.01,East,94,6.2,14.2,90,0.00,,---,0.00,0.00,VWS V14.01,2013-04-22 04:05:00,
2013-04-21 23:07:00,68.4,65.4,30.01,ESE,103,8.2,10.2,90,0.00,,---,0.00,,VWS V14.01,2013-04-22 04:07:00,
2013-04-21 23:10:00,68.3,65.3,30.01,East,92,7.2,14.2,90,0.00,,---,0.00,0.00,VWS V14.01,2013-04-22 04:10:00,
2013-04-21 23:12:00,68.3,65.3,30.01,East,88,7.2,11.2,90,0.00,,---,0.00,,VWS V14.01,2013-04-22 04:12:00,
2013-04-21 23:15:00,68.3,65.3,30.01,ESE,103,7.2,14.2,90,0.00,,---,0.00,0.00,VWS V14.01,2013-04-22 04:15:00,
2013-04-21 23:17:00,68.3,65.3,30.01,East,86,6.2,10.2,90,0.00,,---,0.00,,VWS V14.01,2013-04-22 04:17:00,
2013-04-21 23:20:00,68.3,65.3,30.01,NE,40,6.2,15.2,90,0.00,,---,0.00,0.00,VWS V14.01,2013-04-22 04:20:00,
2013-04-21 23:22:00,68.3,65.3,30.01,East,90,4.2,6.2,90,0.00,,---,0.00,,VWS V14.01,2013-04-22 04:22:00,
2013-04-21 23:25:00,68.3,65.6,30.01,ESE,103,10.2,13.2,91,0.00,,---,0.00,0.00,VWS V14.01,2013-04-22 04:25:00,
2013-04-21 23:27:00,68.3,65.6,30.01,ENE,72,4.2,13.2,91,0.00,,---,0.00,,VWS V14.01,2013-04-22 04:27:00,
2013-04-21 23:30:00,68.3,65.6,30.01,ESE,109,7.2,13.2,91,0.00,,---,0.00,0.00,VWS V14.01,2013-04-22 04:30:00,
2013-04-21 23:32:00,68.3,65.6,30.01,ENE,78,6.2,7.2,91,0.00,,---,0.00,,VWS V14.01,2013-04-22 04:32:00,
2013-04-21 23:35:00,68.3,65.6,30.01,East,97,10.2,14.2,91,0.00,,---,0.00,0.00,VWS V14.01,2013-04-22 04:35:00,
2013-04-21 23:37:00,68.3,65.6,30.01,East,84,3.2,10.2,91,0.00,,---,0.00,,VWS V14.01,2013-04-22 04:37:00,
2013-04-21 23:40:00,68.1,65.4,30.01,East,97,12.2,15.2,91,0.00,,---,0.00,0.00,VWS V14.01,2013-04-22 04:40:00,
2013-04-21 23:42:00,68.1,65.4,30.01,ESE,107,8.2,12.2,91,0.00,,---,0.00,,VWS V14.01,2013-04-22 04:42:00,
2013-04-21 23:45:00,68.1,65.4,30.01,East,98,11.2,13.2,91,0.00,,---,0.00,0.00,VWS V14.01,2013-04-22 04:45:00,
2013-04-21 23:47:00,68.1,65.4,30.01,ESE,113,12.2,12.2,91,0.00,,---,0.00,,VWS V14.01,2013-04-22 04:47:00,
2013-04-21 23:50:00,68.1,65.4,30.01,ESE,103,11.2,14.2,91,0.00,,---,0.00,0.00,VWS V14.01,2013-04-22 04:50:00,
2013-04-21 23:52:00,68.1,65.4,30.01,ENE,66,8.2,11.2,91,0.00,,---,0.00,,VWS V14.01,2013-04-22 04:52:00,
2013-04-21 23:55:00,68.1,65.4,30.01,East,82,7.2,15.2,91,0.00,,---,0.00,0.00,VWS V14.01,2013-04-22 04:55:00,
2013-04-21 23:57:00,68.1,65.1,30.01,East,90,5.2,8.2,90,0.00,,---,0.00,,VWS V14.01,2013-04-22 04:57:00,